�N����,����,�~����,�C��,���x,�C��,����,���ϕ���,�ő�u�ԕ���,�ő厞����,���˗�,�I�_���x,�n�����x,�ő啗���N��,DTYPE
"23/08/30","00:10",0.0,25.9,82.3,1008.3,307.5,1.1,1.9,309.5,0.00,22.7,26.7,"00:04:00",1
"23/08/30","00:20",0.0,25.7,82.6,1008.3,280.2,0.6,1.3,259.5,0.00,22.6,26.7,"00:10:24",1
"23/08/30","00:30",0.0,25.5,83.2,1008.3,315.0,0.8,1.2,321.9,0.00,22.5,26.7,"00:26:48",1
"23/08/30","00:40",0.0,25.4,83.8,1008.1,293.9,0.6,1.3,312.2,0.00,22.5,26.8,"00:34:48",1
"23/08/30","00:50",0.0,25.3,84.3,1007.8,321.0,0.6,1.1,336.5,0.00,22.5,26.7,"00:43:36",1
"23/08/30","01:00",0.0,25.2,84.8,1008.1,324.2,0.7,1.2,348.1,0.00,22.5,26.6,"00:53:52",1
"23/08/30","01:10",0.0,25.2,85.1,1008.1,309.9,0.8,1.4,316.1,0.00,22.6,26.5,"01:04:56",1
"23/08/30","01:20",0.0,25.2,85.4,1007.4,303.5,0.8,1.4,339.8,0.00,22.6,26.7,"01:14:24",1
"23/08/30","01:30",0.0,25.2,85.4,1007.8,285.7,0.8,1.4,306.1,0.00,22.6,26.7,"01:29:52",1
"23/08/30","01:40",0.0,25.3,85.4,1007.6,322.0,1.0,1.3,330.7,0.00,22.7,26.4,"01:32:24",1
"23/08/30","01:50",0.0,25.1,85.5,1007.8,330.4,0.7,1.2,343.1,0.00,22.5,26.6,"01:44:40",1
"23/08/30","02:00",0.0,24.9,85.7,1007.8,322.2,0.5,1.0,261.5,0.00,22.4,26.4,"01:57:28",1
"23/08/30","02:10",0.0,24.6,86.2,1008.1,316.0,0.6,1.0,334.9,0.00,22.2,26.5,"02:06:24",1
"23/08/30","02:20",0.0,24.6,86.7,1007.6,333.0,0.7,1.7,327.5,0.00,22.3,26.2,"02:11:28",1
"23/08/30","02:30",0.0,24.5,87.1,1007.8,303.9,0.3,1.3,315.9,0.00,22.3,26.2,"02:21:36",1
"23/08/30","02:40",0.0,24.2,87.4,1008.3,315.7,0.6,1.0,305.2,0.00,22.0,26.3,"02:33:36",1
"23/08/30","02:50",0.0,24.2,87.9,1008.3,318.7,0.6,1.3,324.3,0.00,22.1,26.2,"02:46:48",1
"23/08/30","03:00",0.0,24.3,88.3,1008.1,331.4,0.7,1.2,332.1,0.00,22.3,26.3,"02:56:08",1
"23/08/30","03:10",0.0,24.3,88.7,1008.3,342.3,1.0,1.6,342.3,0.00,22.4,26.2,"03:07:44",1
"23/08/30","03:20",0.0,24.0,89.0,1008.1,328.5,0.7,1.0,325.5,0.00,22.1,26.2,"03:10:24",1
"23/08/30","03:30",0.0,23.9,89.3,1008.1,279.8,0.6,1.1,260.6,0.00,22.1,26.0,"03:23:52",1
"23/08/30","03:40",0.0,23.7,89.5,1008.1,279.0,0.6,0.9,256.4,0.00,21.9,26.1,"03:36:24",1
"23/08/30","03:50",0.0,23.8,89.8,1007.8,307.8,0.8,1.4,329.3,0.00,22.1,25.9,"03:44:08",1
"23/08/30","04:00",0.0,23.9,90.0,1008.1,331.7,1.0,1.3,327.9,0.00,22.2,26.2,"03:52:24",1
"23/08/30","04:10",0.0,23.9,90.1,1008.1,316.0,0.7,1.1,320.9,0.00,22.2,26.0,"04:06:16",1
"23/08/30","04:20",0.0,23.7,90.2,1008.1,308.3,0.6,1.3,357.0,0.00,22.0,26.0,"04:10:24",1
"23/08/30","04:30",0.0,23.6,90.3,1007.8,296.8,0.6,1.0,314.0,0.00,22.0,25.9,"04:20:08",1
"23/08/30","04:40",0.0,23.6,90.4,1008.3,270.1,0.6,0.9,261.3,0.00,22.0,25.8,"04:32:08",1
"23/08/30","04:50",0.0,23.5,90.5,1007.8,309.6,0.5,1.0,315.0,0.00,21.9,25.8,"04:48:56",1
"23/08/30","05:00",0.0,23.6,90.6,1007.8,312.7,0.7,1.1,309.0,0.00,22.0,25.8,"04:50:24",1
"23/08/30","05:10",0.0,23.6,90.7,1007.8,291.2,0.6,1.2,335.7,0.00,22.0,25.9,"05:05:04",1
"23/08/30","05:20",0.0,23.7,91.0,1008.3,281.4,0.7,1.4,267.6,0.00,22.2,26.0,"05:16:32",1
"23/08/30","05:30",0.0,23.9,91.0,1008.3,326.1,1.0,1.4,328.1,0.00,22.4,25.7,"05:26:08",1
"23/08/30","05:40",0.0,24.0,90.9,1008.3,323.4,0.7,1.0,331.8,0.00,22.5,25.8,"05:30:08",1
"23/08/30","05:50",0.0,23.9,91.0,1008.1,314.0,0.8,1.6,311.1,0.00,22.4,25.8,"05:46:08",1
"23/08/30","06:00",0.0,24.1,91.0,1008.6,308.1,0.7,1.7,339.2,0.00,22.6,25.6,"05:51:20",1
"23/08/30","06:10",0.0,24.2,90.9,1008.3,311.9,0.7,1.2,308.9,0.00,22.7,25.8,"06:04:00",1
"23/08/30","06:20",0.0,24.2,90.7,1008.3,301.5,0.8,1.4,329.4,0.00,22.6,25.7,"06:15:12",1
"23/08/30","06:30",0.0,24.5,90.6,1008.6,299.3,0.5,1.4,315.5,0.00,22.9,25.6,"06:20:56",1
"23/08/30","06:40",0.0,24.6,90.4,1008.3,319.2,0.8,1.2,333.8,0.01,23.0,25.8,"06:37:04",1
"23/08/30","06:50",0.0,24.8,90.3,1008.3,281.5,0.7,1.1,321.8,0.01,23.1,25.4,"06:40:40",1
"23/08/30","07:00",0.0,25.1,90.0,1008.3,270.8,0.8,1.2,337.3,0.02,23.4,25.6,"06:50:40",1
"23/08/30","07:10",0.0,25.5,89.7,1008.1,280.2,0.7,1.4,254.8,0.03,23.7,25.8,"07:01:04",1
"23/08/30","07:20",0.0,26.0,89.4,1008.1,294.9,0.7,1.1,315.3,0.07,24.2,25.5,"07:13:44",1
"23/08/30","07:30",0.0,26.7,87.6,1007.8,251.8,0.8,1.9,240.2,0.17,24.5,25.8,"07:28:16",1
"23/08/30","07:40",0.0,27.6,85.2,1008.1,300.6,0.6,1.7,240.5,0.14,24.9,25.8,"07:31:44",1
"23/08/30","07:50",0.0,28.6,81.6,1007.6,65.0,0.7,1.8,125.6,0.15,25.2,25.6,"07:42:16",1
"23/08/30","08:00",0.0,29.1,78.2,1007.4,100.5,0.7,2.4,89.3,0.13,25.0,25.8,"07:58:16",1
"23/08/30","08:10",0.0,29.2,77.4,1007.4,118.1,0.8,2.2,116.8,0.11,24.9,25.8,"08:05:20",1
"23/08/30","08:20",0.0,29.3,76.4,1007.6,119.4,1.0,2.5,111.9,0.14,24.8,25.5,"08:16:48",1
"23/08/30","08:30",0.0,29.3,76.4,1007.8,132.2,1.1,2.7,133.0,0.13,24.8,25.9,"08:26:56",1
"23/08/30","08:40",0.0,29.9,75.7,1007.8,132.4,0.8,1.8,93.5,0.19,25.2,26.0,"08:38:56",1
"23/08/30","08:50",0.0,30.4,73.9,1008.8,98.6,1.0,2.5,75.7,0.20,25.3,25.8,"08:41:44",1
"23/08/30","09:00",0.0,30.0,73.8,1008.3,130.7,0.8,2.7,161.7,0.13,24.9,25.7,"08:55:12",1
"23/08/30","09:10",0.0,29.9,73.8,1008.6,129.3,1.1,3.7,125.8,0.12,24.8,26.0,"09:06:16",1
"23/08/30","09:20",0.0,29.9,75.4,1008.1,151.2,1.3,2.7,131.4,0.15,25.1,25.9,"09:10:56",1
"23/08/30","09:30",0.0,30.5,74.5,1008.6,140.1,0.8,1.9,137.3,0.18,25.5,25.9,"09:27:44",1
"23/08/30","09:40",0.0,31.0,72.8,1008.1,114.2,1.0,2.8,101.5,0.21,25.6,25.9,"09:33:04",1
"23/08/30","09:50",0.0,31.2,72.3,1008.6,111.6,1.0,2.5,109.0,0.19,25.7,26.2,"09:44:40",1
"23/08/30","10:00",0.0,31.2,71.2,1008.8,102.3,1.0,2.6,113.5,0.18,25.4,26.1,"09:54:08",1
"23/08/30","10:10",0.0,31.0,71.3,1009.0,122.9,0.8,1.8,83.2,0.12,25.2,26.1,"10:01:44",1
"23/08/30","10:20",0.0,30.7,72.3,1009.0,132.6,1.0,2.8,129.4,0.08,25.2,26.0,"10:17:28",1
"23/08/30","10:30",0.0,30.6,73.1,1008.6,118.0,1.0,2.8,126.4,0.13,25.3,26.2,"10:20:40",1
"23/08/30","10:40",0.0,30.8,73.2,1008.3,131.7,1.2,2.5,136.7,0.14,25.5,26.2,"10:37:04",1
"23/08/30","10:50",0.0,30.7,73.7,1008.3,123.4,1.0,2.6,112.9,0.11,25.5,26.3,"10:47:28",1
"23/08/30","11:00",0.0,30.8,72.5,1008.6,75.8,1.0,2.1,44.7,0.13,25.3,26.5,"10:55:52",1
"23/08/30","11:10",0.0,30.9,72.8,1008.3,110.1,1.1,2.9,194.0,0.14,25.5,26.2,"11:07:04",1
"23/08/30","11:20",0.0,31.2,72.4,1008.3,94.7,1.0,2.0,60.2,0.19,25.7,26.3,"11:10:56",1
"23/08/30","11:30",0.0,31.6,70.8,1008.1,75.1,1.3,3.2,350.2,0.25,25.7,26.4,"11:23:04",1
"23/08/30","11:40",0.0,32.7,69.0,1008.6,101.3,0.7,2.0,107.1,0.34,26.3,26.5,"11:32:48",1
"23/08/30","11:50",0.0,33.1,66.2,1009.5,83.9,0.8,2.2,113.4,0.32,26.0,26.6,"11:48:00",1
"23/08/30","12:00",0.0,32.8,66.3,1009.0,23.7,0.7,2.2,358.9,0.20,25.7,26.3,"11:52:00",1
"23/08/30","12:10",0.0,32.5,67.7,1009.0,160.8,1.0,2.1,117.5,0.17,25.8,26.6,"12:08:00",1
"23/08/30","12:20",0.0,32.1,68.8,1009.0,155.0,0.8,2.4,178.5,0.13,25.7,26.5,"12:14:08",1
"23/08/30","12:30",0.0,32.7,67.7,1008.8,86.5,0.8,2.2,335.5,0.20,26.0,26.6,"12:26:08",1
"23/08/30","12:40",0.0,32.6,68.2,1008.8,106.9,0.5,1.2,2.5,0.14,26.0,26.5,"12:37:20",1
"23/08/30","12:50",0.0,32.9,67.5,1008.8,7.4,0.6,1.6,357.6,0.13,26.1,26.6,"12:40:48",1
"23/08/30","13:00",0.0,32.0,66.0,1008.1,188.4,1.6,3.4,200.1,0.05,24.9,26.7,"12:56:08",1
"23/08/30","13:10",0.0,31.8,67.2,1007.8,159.7,1.2,2.6,190.0,0.10,25.0,26.7,"13:00:16",1
"23/08/30","13:20",0.0,31.7,66.4,1007.8,156.0,1.5,3.5,122.3,0.08,24.7,26.8,"13:12:16",1
"23/08/30","13:30",0.0,31.6,66.8,1007.4,136.2,1.5,3.5,142.9,0.07,24.7,26.9,"13:22:40",1
"23/08/30","13:40",0.0,31.6,67.3,1007.1,152.8,1.3,2.7,139.8,0.08,24.8,26.9,"13:34:48",1
"23/08/30","13:50",0.0,31.6,66.9,1007.6,148.7,1.0,2.4,164.2,0.07,24.7,26.9,"13:44:32",1
"23/08/30","14:00",0.0,30.5,66.4,1007.4,351.9,1.6,3.4,352.4,0.05,23.6,26.9,"13:51:20",1
"23/08/30","14:10",0.0,30.5,70.1,1006.7,354.1,1.0,2.0,344.1,0.16,24.5,26.8,"14:04:40",1
"23/08/30","14:20",0.0,30.9,69.7,1007.1,42.0,1.0,2.1,2.8,0.14,24.8,26.9,"14:13:28",1
"23/08/30","14:30",0.0,31.2,68.7,1007.1,49.4,1.1,3.2,128.9,0.08,24.8,26.7,"14:29:44",1
"23/08/30","14:40",0.0,31.2,68.1,1007.1,224.8,1.0,2.4,242.5,0.05,24.7,26.8,"14:33:20",1
"23/08/30","14:50",0.0,31.3,69.3,1006.9,349.6,1.0,2.5,325.6,0.05,25.0,26.9,"14:42:24",1
"23/08/30","15:00",0.0,31.0,70.2,1006.9,339.4,0.6,1.8,167.0,0.06,25.0,26.9,"14:58:56",1
"23/08/30","15:10",0.0,31.4,67.8,1006.9,137.1,1.1,2.5,154.6,0.07,24.8,26.8,"15:00:02",1
"23/08/30","15:20",0.0,31.5,66.8,1006.9,140.6,1.3,2.9,136.2,0.08,24.6,26.8,"15:10:56",1
"23/08/30","15:30",0.0,31.5,66.4,1006.7,151.5,1.5,3.4,156.5,0.07,24.5,26.9,"15:27:36",1
"23/08/30","15:40",0.0,31.4,66.3,1006.9,151.1,1.5,3.2,113.7,0.07,24.4,26.8,"15:30:08",1
"23/08/30","15:50",0.0,31.3,67.0,1007.1,140.7,1.5,3.3,126.4,0.04,24.5,27.0,"15:44:24",1
"23/08/30","16:00",0.0,31.4,66.9,1006.7,143.7,1.5,3.7,154.6,0.04,24.5,27.0,"15:52:48",1
"23/08/30","16:10",0.0,31.3,66.8,1006.7,132.9,1.5,3.1,115.4,0.03,24.4,26.8,"16:01:52",1
"23/08/30","16:20",0.0,31.3,66.4,1006.4,134.7,1.6,2.9,164.5,0.03,24.3,26.9,"16:14:16",1
"23/08/30","16:30",0.0,31.4,66.7,1006.4,132.2,1.2,2.4,139.0,0.04,24.5,26.9,"16:21:04",1
"23/08/30","16:40",0.0,31.2,67.2,1006.4,136.2,1.0,3.3,113.0,0.01,24.4,27.0,"16:36:32",1
"23/08/30","16:50",0.0,31.1,67.5,1006.4,151.7,1.5,3.6,145.6,0.00,24.4,27.0,"16:48:24",1
"23/08/30","17:00",0.0,31.0,67.4,1006.2,155.8,1.7,4.0,186.7,0.00,24.3,27.0,"16:51:12",1
"23/08/30","17:10",0.0,31.1,68.8,1006.2,190.3,1.7,4.4,212.0,0.00,24.7,26.8,"17:05:52",1
"23/08/30","17:20",0.0,30.2,71.8,1006.2,237.3,1.1,2.9,221.8,0.00,24.6,26.9,"17:14:56",1
"23/08/30","17:30",0.0,29.8,74.4,1006.2,34.4,0.7,2.4,355.7,0.00,24.8,26.8,"17:26:32",1
"23/08/30","17:40",0.0,29.6,74.5,1006.0,33.6,1.1,2.7,310.8,0.00,24.6,26.8,"17:30:40",1
"23/08/30","17:50",0.0,29.9,71.7,1006.2,153.1,1.2,3.4,134.9,0.00,24.3,27.0,"17:43:20",1
"23/08/30","18:00",0.0,30.3,69.8,1006.2,145.0,1.3,2.5,124.9,0.00,24.2,26.9,"17:58:40",1
"23/08/30","18:10",0.0,30.2,69.1,1006.0,129.1,1.2,5.1,156.9,0.00,23.9,26.7,"18:09:32",1
"23/08/30","18:20",0.0,30.2,69.3,1006.2,134.2,1.2,3.4,112.2,0.00,24.0,26.7,"18:15:20",1
"23/08/30","18:30",0.0,30.0,69.8,1006.0,139.7,1.3,3.4,150.7,0.00,23.9,26.8,"18:29:28",1
"23/08/30","18:40",0.0,29.9,70.3,1006.2,151.9,1.3,3.4,105.6,0.00,23.9,26.7,"18:37:04",1
"23/08/30","18:50",0.0,29.8,70.2,1006.4,154.5,1.1,2.8,168.7,0.00,23.8,26.8,"18:42:32",1
"23/08/30","19:00",0.0,29.8,70.2,1006.2,150.3,1.7,3.4,115.9,0.00,23.8,26.7,"18:54:08",1
"23/08/30","19:10",0.0,29.7,70.6,1006.7,154.5,1.7,3.5,133.8,0.00,23.8,26.8,"19:08:24",1
"23/08/30","19:20",0.0,29.6,71.3,1007.1,153.1,1.2,2.1,146.1,0.00,23.9,26.6,"19:15:20",1
"23/08/30","19:30",0.0,29.4,71.8,1007.4,145.2,1.3,2.8,145.1,0.00,23.8,26.5,"19:22:32",1
"23/08/30","19:40",0.0,29.4,72.4,1006.9,160.8,1.5,2.7,121.3,0.00,24.0,26.5,"19:36:08",1
"23/08/30","19:50",0.0,29.2,73.1,1007.4,150.8,1.2,2.4,180.9,0.00,23.9,26.5,"19:48:40",1
"23/08/30","20:00",0.0,29.2,73.3,1008.1,159.7,1.5,2.6,182.2,0.00,24.0,26.4,"19:52:32",1
"23/08/30","20:10",0.0,29.2,73.2,1007.8,158.3,1.6,3.5,126.1,0.00,23.9,26.7,"20:06:24",1
"23/08/30","20:20",0.0,29.1,73.6,1008.3,159.2,1.5,3.5,161.8,0.00,23.9,26.5,"20:14:16",1
"23/08/30","20:30",0.0,29.0,74.1,1008.3,160.4,1.2,3.1,167.9,0.00,24.0,26.5,"20:21:12",1
"23/08/30","20:40",0.0,28.9,74.5,1008.3,163.7,1.1,2.9,120.6,0.00,23.9,26.6,"20:34:08",1
"23/08/30","20:50",0.0,28.8,74.9,1008.1,149.3,1.1,2.9,124.7,0.00,23.9,26.6,"20:45:20",1
"23/08/30","21:00",0.0,28.8,75.2,1008.1,152.2,1.1,1.9,109.2,0.00,24.0,26.7,"20:51:52",1
"23/08/30","21:10",0.0,28.8,75.1,1008.3,177.9,1.1,2.6,198.4,0.00,24.0,26.4,"21:03:52",1
"23/08/30","21:20",0.0,28.8,75.1,1008.3,160.2,1.1,2.1,132.5,0.00,24.0,26.3,"21:15:44",1
"23/08/30","21:30",0.0,28.8,75.0,1008.3,174.4,1.2,2.7,147.9,0.00,24.0,26.4,"21:24:32",1
"23/08/30","21:40",0.0,28.8,74.6,1008.3,169.1,1.2,2.5,201.8,0.00,23.9,26.5,"21:32:32",1
"23/08/30","21:50",0.0,28.8,74.6,1008.3,156.6,1.1,2.6,142.2,0.00,23.9,26.6,"21:44:48",1
"23/08/30","22:00",0.0,28.7,74.8,1008.3,158.1,0.7,1.4,208.3,0.00,23.8,26.4,"21:50:24",1
"23/08/30","22:10",0.0,28.5,75.7,1008.1,153.0,0.6,1.8,170.7,0.00,23.8,26.4,"22:01:28",1
"23/08/30","22:20",0.0,28.4,76.2,1008.1,151.2,0.7,1.8,127.1,0.00,23.8,26.4,"22:14:08",1
"23/08/30","22:30",0.0,28.4,76.2,1008.1,128.0,0.7,2.5,117.8,0.00,23.8,26.2,"22:22:32",1
"23/08/30","22:40",0.0,28.3,76.3,1008.3,142.9,0.8,2.5,129.1,0.00,23.8,26.2,"22:32:08",1
"23/08/30","22:50",0.0,28.4,76.2,1008.1,54.9,0.6,2.2,112.1,0.00,23.8,26.4,"22:42:32",1
"23/08/30","23:00",0.0,28.3,76.4,1008.1,51.5,0.7,1.6,66.1,0.00,23.8,26.2,"22:54:32",1
"23/08/30","23:10",0.0,28.1,76.8,1008.3,55.9,0.6,1.6,17.3,0.00,23.7,26.2,"23:04:40",1
"23/08/30","23:20",0.0,28.0,77.2,1008.6,57.5,0.5,1.7,24.8,0.00,23.7,26.2,"23:10:56",1
"23/08/30","23:30",0.0,27.9,77.6,1008.3,44.6,0.5,1.4,87.3,0.00,23.7,26.2,"23:29:44",1
"23/08/30","23:40",0.0,27.9,77.5,1008.1,84.4,0.6,1.7,112.5,0.00,23.6,26.5,"23:30:56",1
"23/08/30","23:50",0.0,27.9,76.8,1008.3,129.8,0.8,3.3,117.6,0.00,23.5,26.3,"23:49:44",1
"23/08/30","24:00",0.0,28.0,76.2,1008.3,149.2,1.1,2.4,127.1,0.00,23.5,26.2,"23:50:08",1
